Lid_Strength_Index
-1 -1 -1 -1 -2 -1 -1 -1 -1 -1 -1 -1 -1 -1 -2 -2 1 0 -1 -1 -2 -1 -2 -2 -1 -2 -2 -1 -1 -1 -2 -2 -2
-1 -2 -1 -1 -1 -1 -1 -1 -1 -1 -1 -1 -1 -1 -2 -0 0 -0 -0 -0 -1 -1 -1 -1 -1 -1 -1 -1 -2 -1 -2 -2 -2
-1 -1 -2 -1 -1 -1 -1 -1 -1 -1 -1 -1 -1 -2 -1 -0 1 0 -0 -1 -1 -1 -1 -1 -1 -1 -1 -1 -1 -1 -2 -1 -1
-1 -2 -2 -1 -1 -1 -1 -1 -1 -1 -1 -1 -1 -1 -1 0 1 -0 -0 -1 1 -1 -1 -1 -1 -1 -1 -1 -1 -2 -1 -1 -1
-2 -1 -2 -2 -1 -2 -2 -2 -1 -1 -2 -2 -1 -1 -1 0 -0 0 0 -1 1 -2 -1 -1 -1 -1 -2 -2 -2 -2 -1 -1 -1
-1 -0 -1 -1 -1 -1 -2 -2 -2 -1 -1 -1 -1 -0 0 1 1 0 -1 -2 -1 -1 -1 -1 -1 -1 -2 -2 -2 -2 -2 -1 -1
-0 -0 -3 -2 -2 -1 -2 -2 -1 -1 0 0 -1 0 0 0 1 -0 -1 -2 -1 -1 -1 -2 -2 -2 -2 -2 -2 -2 -1 -1 -1
1 1 0 0 -0 -0 -1 -0 -0 0 0 0 1 1 1 3 2 -0 -1 -2 -1 -1 -1 -2 -2 -2 -2 -2 -2 -2 -1 -1 -2
1 1 1 0 1 1 0 1 0 0 0 0 0 -0 2 3 3 0 -1 -2 -1 -1 -1 -1 -2 -2 -2 -2 -2 -2 -2 -2 -2
0 1 1 1 1 1 1 0 0 1 0 0 0 0 -0 2 3 2 -1 -1 -1 -1 -1 -1 -1 -1 -1 -2 -2 -2 -2 -1 -2
1 0 1 1 1 1 1 0 0 1 0 0 0 0 0 -0 1 1 1 -1 -2 -2 -1 -1 -1 -2 -2 -2 -2 -2 -2 -2 -1
3 1 1 1 0 0 0 0 0 0 0 1 0 0 1 -0 0 0 1 0 -0 -2 -1 -1 -2 -2 -2 -2 -2 -2 -2 -2 -2
5 3 2 1 0 0 1 1 1 1 1 1 1 1 -0 1 1 0 0 0 0 -0 -2 -2 -1 -2 -2 -2 -2 -2 -2 -2 -2
7 6 4 3 2 1 1 1 1 2 2 1 1 1 1 0 -0 1 0 0 0 0 -0 -1 -1 -1 -2 -2 -2 -2 -2 -2 -2
9 8 8 6 4 3 2 2 2 1 2 1 1 2 1 1 1 1 0 0 0 0 0 0 0 0 -1 -2 -2 -2 -2 -2 -2
10 9 9 8 8 6 3 2 2 2 1 2 3 2 2 1 1 1 1 0 0 0 0 1 1 1 -1 -1 -1 -2 -2 -2 -2
11 10 10 10 9 9 7 5 4 2 1 3 3 5 4 2 1 1 1 1 1 0 0 1 1 0 1 0 -1 -1 -2 -2 -2
12 11 11 11 10 10 9 8 6 5 3 2 3 6 6 4 3 2 2 2 2 1 0 0 -0 0 0 1 1 -0 -1 -2 -2
12 12 12 12 11 11 10 9 9 7 6 4 2 2 3 6 6 3 3 2 2 2 2 0 -0 -0 -0 1 2 2 1 -1 -2
13 13 13 13 12 12 12 11 10 9 8 6 5 3 3 2 4 6 4 3 2 1 1 2 1 0 -0 0 1 2 1 -1 -1